Wind_Speed
59 59 63 63 62 57 54 50 46 43 42 40 35 43 37 37 36 35 36 39 44 50 50 47 43 39 34 32 29 27 26 23 22 19 17 16 15 15 14 15 17 21 24 25 27 30 35 36 37 40 42 44 45 45
62 63 59 57 55 53 47 42 39 39 38 33 30 39 36 36 34 32 36 39 43 49 48 45 43 39 35 34 31 28 28 27 25 22 21 21 21 20 20 22 23 25 27 29 29 31 36 40 42 44 44 45 46 47
52 51 51 51 49 45 38 35 29 33 36 35 34 34 35 36 31 31 36 40 42 38 46 44 42 39 36 34 32 30 30 27 27 28 28 27 28 27 28 29 30 31 32 34 36 35 40 44 44 45 45 45 46 47
49 46 45 43 40 36 34 31 31 35 36 35 33 32 32 30 29 33 42 40 42 37 40 44 42 39 37 35 32 31 30 31 30 31 32 32 33 33 33 35 36 34 36 39 41 41 45 42 42 43 43 44 45 45
42 39 37 32 32 30 35 35 34 34 31 32 33 34 30 31 34 36 41 42 39 38 36 38 41 39 37 35 33 32 32 32 33 33 34 35 35 37 38 40 36 37 40 43 43 42 42 39 39 40 41 43 45 47
32 33 34 31 36 35 36 31 27 28 30 29 32 32 35 45 35 32 48 39 37 35 37 38 36 35 36 35 34 33 33 32 33 35 36 37 36 40 42 41 35 36 38 40 40 41 41 41 41 42 44 46 47 48
35 30 33 33 36 34 34 28 28 25 26 28 31 33 37 38 40 31 28 30 32 33 33 34 33 34 35 34 34 34 34 34 36 37 37 38 39 42 43 42 36 34 36 38 40 41 42 42 44 45 47 48 48 48
33 34 38 32 33 31 30 26 33 25 27 27 26 28 32 34 32 29 27 26 28 28 30 31 32 31 31 31 32 33 34 35 36 37 38 39 41 40 40 34 34 34 36 38 40 42 43 44 45 46 46 46 46 47
34 33 32 43 34 28 25 25 30 31 30 31 29 31 30 28 29 29 28 27 28 29 28 26 25 26 30 29 31 32 34 35 37 37 36 37 37 37 33 33 35 37 38 39 42 44 44 45 46 45 45 47 50 51
34 37 38 37 39 25 25 25 23 24 27 28 26 22 22 24 26 26 26 27 27 27 25 23 22 22 24 24 26 28 30 31 33 31 33 34 35 33 35 36 37 38 41 44 45 45 46 46 47 48 49 50 52 55
33 38 34 38 41 27 29 21 24 23 20 21 24 24 23 21 20 21 22 22 22 21 19 18 19 19 21 23 26 30 30 31 34 33 32 33 33 34 37 38 40 42 43 42 43 44 46 48 48 50 52 54 56 57
31 31 34 37 35 31 31 30 25 22 19 18 17 16 17 18 19 22 22 20 19 18 16 17 20 22 23 25 28 29 31 33 34 33 35 35 33 34 35 37 38 39 40 42 44 46 48 50 52 53 55 58 61 60
28 28 30 34 36 38 33 24 20 18 20 21 21 23 27 28 28 26 21 18 18 20 22 22 23 26 28 30 32 33 34 35 34 37 37 33 33 35 37 39 42 44 46 48 50 51 53 56 59 60 59 56 54 52
24 32 32 27 30 34 33 35 36 33 29 28 28 27 29 31 30 26 23 24 26 26 27 28 27 28 29 31 33 32 33 34 37 37 36 37 40 42 44 46 47 50 52 54 55 57 57 56 55 54 53 55 55 55
19 26 32 33 30 31 31 31 34 35 33 32 33 35 34 30 30 29 28 28 32 34 33 32 31 30 30 31 31 33 35 36 36 38 42 44 46 48 50 53 55 56 57 57 57 55 55 56 57 56 53 50 48 48
21 21 22 24 25 24 27 30 29 27 27 31 33 29 27 30 29 27 29 29 28 28 28 27 28 29 30 32 33 35 37 40 42 44 46 49 52 53 53 53 53 53 52 53 53 54 56 55 52 51 49 47 50 51
27 25 21 19 20 19 19 18 18 19 21 22 21 21 20 21 21 21 21 20 21 23 25 26 28 31 33 36 38 40 42 44 47 48 49 48 46 45 45 45 47 49 51 52 53 53 53 52 47 46 49 52 52 53
30 28 27 33 28 25 24 24 23 23 23 25 28 29 28 27 27 27 29 30 31 32 33 35 37 39 40 42 43 44 44 44 41 37 37 38 41 43 46 48 50 51 51 51 49 46 45 46 48 50 52 54 56 58
33 32 32 33 34 32 32 31 30 31 31 31 31 32 34 35 36 36 36 37 38 38 37 37 38 35 35 35 34 34 33 33 35 37 40 43 46 48 50 51 50 49 48 47 48 48 48 49 51 53 55 57 61 64
28 30 34 36 37 36 35 34 34 33 33 32 34 35 36 37 36 36 37 36 36 35 33 30 30 30 30 32 33 34 36 38 42 45 47 49 50 51 51 49 47 47 46 45 46 48 50 52 54 57 59 63 66 70
17 19 20 21 21 24 25 24 26 27 27 28 29 30 31 32 32 32 31 31 30 29 30 30 31 32 33 35 37 40 42 45 47 50 51 52 51 49 47 45 43 43 45 47 48 49 52 54 57 60 64 69 73 78
15 15 15 16 17 18 19 20 21 22 23 23 23 24 26 27 28 28 30 30 30 31 32 34 35 36 38 40 43 45 48 49 50 51 51 49 46 44 41 41 43 45 46 48 51 54 56 59 63 67 71 75 80 83
16 16 16 17 18 19 19 20 22 22 24 25 26 27 28 30 31 32 32 32 34 35 37 39 41 43 45 47 49 50 50 50 49 46 42 38 38 39 41 43 44 46 49 51 54 57 61 65 69 73 77 81 83 82
19 20 20 21 22 23 23 24 25 26 27 29 30 31 32 34 35 37 37 38 41 43 45 47 49 50 50 50 49 47 45 41 36 35 36 37 40 42 43 45 47 50 53 56 59 62 66 71 76 79 81 81 78 77
25 26 27 29 30 32 33 34 35 36 38 39 40 41 42 44 45 46 47 48 50 51 52 52 50 48 46 43 38 34 33 34 36 37 36 37 40 43 47 50 53 55 57 61 65 70 74 77 79 78 76 76 74 71
30 30 31 33 35 36 38 39 40 42 43 44 46 48 49 51 52 53 53 53 52 50 46 41 36 33 31 30 31 31 33 34 36 39 42 45 48 51 53 54 57 61 65 69 72 74 75 74 74 73 71 67 66 64
32 34 36 37 38 40 40 42 43 44 45 45 46 45 46 45 44 38 36 34 29 25 22 22 24 26 27 29 30 32 34 38 42 45 48 50 52 54 58 62 65 69 71 72 71 70 71 69 66 64 63 61 57 53
23 22 18 15 12 14 8 9 10 12 14 15 19 17 15 13 15 15 14 13 16 21 23 23 25 29 31 34 38 41 44 46 47 49 52 56 59 63 65 67 67 67 67 69 68 65 63 61 60 58 55 51 46 46
3 5 6 6 6 6 7 9 10 9 10 12 13 9 10 12 12 14 18 20 22 25 27 30 31 34 38 40 42 43 46 49 53 57 60 61 62 62 63 64 66 66 64 62 61 60 59 56 53 49 43 41 42 44
9 9 10 11 12 11 10 9 10 11 11 13 13 14 16 17 18 19 20 22 24 26 29 32 34 38 41 44 47 49 51 52 53 55 57 59 61 62 63 62 60 59 59 58 57 54 51 48 44 39 38 40 43 44
13 14 15 15 15 17 18 17 15 15 16 17 19 20 22 24 25 27 29 31 32 35 36 38 39 39 39 40 43 47 50 54 56 58 59 60 59 57 57 57 57 56 53 50 47 45 42 39 38 39 40 43 43 42
16 17 19 20 21 22 23 23 24 24 25 27 28 30 31 32 33 34 36 35 34 34 33 34 36 40 43 47 51 54 57 58 57 56 55 54 54 55 55 54 51 47 45 43 41 40 39 39 39 40 42 42 40 38
24 25 27 28 29 30 30 31 31 31 31 31 31 32 33 34 34 33 32 31 32 34 37 40 45 49 52 55 57 57 55 53 52 52 53 53 53 51 47 45 45 43 41 41 41 41 41 41 41 41 40 38 36 36
Wind_Direction
142 146 146 152 151 147 149 154 157 161 170 177 179 177 183 189 189 195 193 192 193 197 197 198 201 205 203 208 213 222 232 239 247 256 266 273 278 277 277 273 271 274 276 278 280 285 287 289 289 287 288 288 290 291
138 142 145 143 144 148 147 151 159 171 178 177 185 180 183 189 192 192 191 191 197 200 199 199 204 209 210 213 218 226 233 241 248 258 263 266 275 281 281 279 278 277 280 284 287 287 286 288 290 291 291 292 292 293
134 134 138 141 146 149 152 158 156 164 170 175 175 179 182 189 193 191 184 191 197 201 201 202 207 212 216 221 225 232 240 247 253 257 262 268 272 277 280 282 284 286 290 290 290 286 288 290 293 294 294 294 293 294
133 136 139 139 143 146 148 153 164 166 168 171 174 176 187 186 190 185 183 191 199 202 205 206 209 215 220 226 231 235 242 248 251 257 263 269 274 278 282 284 287 291 289 288 289 287 290 292 292 291 290 291 293 293
132 134 134 137 142 145 157 157 159 158 166 173 174 178 179 179 177 181 187 196 202 205 202 209 214 219 225 230 235 239 243 250 255 260 264 269 275 280 282 284 289 288 288 288 291 290 290 290 289 290 292 293 295 296
136 140 142 140 152 151 152 157 157 163 166 169 171 172 176 168 151 164 187 199 203 208 209 211 212 220 227 233 239 244 248 252 257 261 267 272 277 279 282 285 286 285 286 288 289 289 291 293 294 295 295 295 296 297
153 147 148 144 148 156 165 158 153 153 162 166 169 169 178 187 190 183 186 192 202 209 212 215 218 223 231 238 244 249 252 257 261 266 271 276 278 280 284 285 289 287 286 287 289 291 293 294 294 295 296 296 297 297
157 155 155 160 157 168 168 166 163 162 176 158 162 168 180 188 198 204 210 213 217 221 222 223 227 232 237 242 247 253 258 263 266 270 272 275 277 279 281 286 285 286 286 288 290 291 292 294 296 297 297 296 296 296
167 160 162 162 173 171 165 165 171 168 164 169 167 160 164 181 190 200 206 210 216 222 226 228 231 235 241 246 251 255 259 262 265 269 271 273 277 280 285 285 286 286 288 289 291 291 292 295 297 297 296 296 296 298
171 173 171 169 173 173 170 172 164 165 187 193 189 195 193 196 199 203 208 213 218 223 225 228 232 236 242 247 251 255 259 261 266 269 273 277 281 284 285 287 287 287 289 292 291 290 291 293 295 296 295 296 297 297
162 175 170 172 179 185 193 185 181 180 196 196 193 193 193 197 202 205 211 214 219 223 226 230 237 243 247 250 254 258 263 268 270 274 278 282 284 286 287 287 285 286 288 289 290 291 293 295 295 294 295 295 295 294
163 170 167 173 184 187 193 199 186 186 185 186 190 194 201 210 215 219 222 227 234 240 246 248 249 251 251 257 261 265 269 271 275 280 279 281 288 288 287 287 288 289 291 294 295 295 293 293 293 294 293 293 296 297
197 187 172 180 196 200 193 195 196 202 209 201 207 209 215 222 227 229 237 251 258 264 260 260 263 265 264 263 266 268 270 274 276 277 283 291 291 290 290 291 293 294 294 294 293 292 291 292 294 297 300 301 301 299
186 191 191 189 185 189 196 203 203 209 217 226 227 226 224 227 234 244 251 254 263 268 265 265 268 268 266 265 267 270 270 273 278 283 290 289 289 291 292 293 294 294 294 294 295 296 299 301 300 299 297 297 297 298
172 194 206 208 204 204 211 209 208 211 214 217 222 224 225 236 246 252 251 257 268 270 266 264 263 262 261 265 267 270 274 278 283 287 286 287 289 292 294 295 296 296 297 298 300 300 298 299 300 302 304 302 300 301
187 184 184 192 199 204 214 222 223 226 226 233 240 245 250 254 252 251 255 257 257 257 260 261 259 263 268 267 269 276 281 286 286 287 289 291 292 293 294 295 296 297 299 301 301 300 300 302 302 300 302 303 304 305
185 190 191 198 196 198 204 210 216 221 224 226 227 232 234 237 240 242 245 249 251 255 259 263 264 267 271 272 277 280 281 283 286 288 289 291 292 294 297 300 302 302 301 299 298 297 297 298 298 298 300 304 306 306
206 209 211 214 225 226 225 227 232 231 236 239 241 242 243 248 257 259 263 267 270 272 273 274 275 277 277 279 281 285 286 288 288 288 290 293 297 299 299 299 299 297 295 295 296 296 296 296 296 298 301 302 302 304
216 220 223 225 230 235 241 247 248 251 253 252 252 252 254 257 262 264 267 269 271 271 273 275 276 277 278 278 279 278 279 281 286 290 294 296 297 297 298 297 296 294 292 292 293 294 294 294 296 298 299 300 302 305
221 226 229 232 236 239 242 244 246 247 248 248 251 253 256 258 261 264 266 266 268 270 270 269 270 272 273 274 276 279 283 286 289 291 294 295 296 296 295 293 292 291 292 293 294 295 295 296 298 300 301 304 306 307
221 226 229 234 236 240 240 243 243 246 247 247 248 249 251 254 256 258 260 260 261 262 265 267 270 272 275 278 282 285 288 290 293 294 295 295 294 293 293 292 292 292 293 295 297 297 298 299 300 302 305 306 306 307
225 226 228 232 235 239 241 243 244 245 245 245 244 245 246 247 249 251 255 258 261 265 267 270 273 276 280 284 286 288 289 291 291 291 291 291 292 293 292 291 292 294 297 299 300 301 301 301 302 303 303 304 306 308
239 241 242 244 246 248 248 250 251 251 252 253 256 257 258 259 259 260 263 266 269 272 275 278 280 283 285 286 286 287 288 288 289 290 291 292 292 292 293 295 296 298 300 300 300 300 300 301 301 302 304 306 308 310
249 250 252 254 257 261 260 262 262 264 263 263 264 265 266 267 268 270 271 273 275 277 279 280 281 281 282 282 283 284 286 287 288 289 290 291 292 293 293 295 296 297 297 298 298 299 300 301 302 304 306 309 310 310
258 260 263 263 263 265 266 267 268 268 268 268 269 269 269 270 271 272 273 275 275 276 276 277 276 277 279 281 284 285 286 287 290 290 289 289 291 293 294 295 296 296 297 298 299 301 302 304 306 308 309 309 309 309
269 270 272 273 274 274 275 275 275 274 273 272 272 272 271 271 272 272 271 272 272 273 275 276 276 275 275 277 279 282 285 286 283 285 288 291 293 294 295 295 295 296 297 299 300 302 305 306 307 307 308 308 309 310
277 278 279 279 279 278 277 275 274 273 273 273 274 273 273 273 274 275 275 274 274 271 267 267 268 270 273 278 282 284 285 285 285 287 290 292 293 293 294 295 297 298 300 302 303 304 305 305 306 307 308 309 311 312
289 288 287 286 273 288 294 299 313 313 304 295 304 285 272 281 289 283 287 258 253 260 259 267 275 277 277 277 279 283 286 288 288 289 290 291 292 294 295 297 299 300 301 302 303 305 306 307 307 309 310 311 313 314
257 293 299 302 303 309 308 309 308 307 314 314 315 285 262 291 299 281 274 274 271 268 269 272 275 278 282 285 286 286 286 287 289 290 292 294 295 296 297 298 300 302 304 305 306 306 307 308 309 311 311 313 316 318
281 285 288 293 287 280 279 286 299 301 297 294 295 285 282 286 287 286 282 279 279 280 281 283 284 285 286 287 288 289 291 293 295 296 296 296 297 298 300 302 303 304 305 306 307 308 310 311 311 311 311 314 318 320
277 277 278 280 281 284 289 289 288 289 290 292 292 290 290 290 289 289 287 286 285 286 287 287 288 290 292 294 297 299 301 301 301 300 299 300 301 300 301 302 303 304 306 307 309 310 311 311 311 312 314 316 318 319
283 283 283 283 284 286 287 288 289 289 289 291 291 291 290 289 288 288 289 290 290 289 289 291 292 295 297 300 302 303 303 302 301 300 300 300 301 301 302 303 303 304 306 307 308 309 310 310 310 311 313 315 316 317
286 286 285 285 285 286 286 286 286 286 286 287 288 290 290 290 289 289 287 286 287 289 291 294 296 299 302 303 303 303 302 301 300 300 300 301 301 302 302 303 304 305 305 306 306 307 307 307 308 310 312 313 314 315
Height
5407 5420 5434 5448 5463 5477 5492 5506 5518 5531 5542 5554 5563 5572 5583 5593 5601 5609 5618 5627 5637 5646 5654 5663 5671 5678 5685 5690 5696 5702 5705 5709 5711 5713 5715 5716 5717 5718 5718 5719 5719 5718 5717 5717 5716 5715 5712 5710 5708 5706 5703 5699 5696 5693
5425 5438 5450 5463 5475 5489 5500 5512 5523 5534 5546 5554 5563 5573 5582 5591 5599 5608 5617 5627 5636 5645 5653 5661 5668 5674 5680 5685 5691 5696 5700 5703 5706 5708 5710 5710 5712 5713 5713 5713 5712 5712 5711 5710 5710 5708 5702 5698 5696 5693 5691 5688 5684 5681
5442 5452 5463 5475 5486 5497 5507 5518 5528 5536 5546 5555 5564 5573 5581 5590 5599 5608 5617 5625 5635 5643 5650 5657 5664 5670 5675 5681 5686 5691 5694 5698 5700 5702 5703 5705 5705 5706 5706 5705 5704 5703 5702 5700 5698 5696 5691 5687 5685 5682 5678 5675 5672 5668
5457 5467 5477 5486 5496 5505 5514 5522 5532 5541 5549 5557 5564 5572 5581 5590 5599 5608 5616 5624 5633 5640 5647 5654 5660 5665 5670 5676 5680 5685 5689 5691 5693 5695 5696 5697 5697 5698 5697 5696 5695 5694 5691 5688 5686 5683 5680 5678 5675 5672 5668 5665 5661 5657
5471 5479 5486 5493 5501 5510 5520 5527 5536 5543 5550 5558 5566 5573 5582 5591 5599 5606 5614 5622 5629 5637 5643 5650 5655 5661 5665 5670 5674 5678 5682 5684 5685 5687 5688 5688 5689 5688 5687 5686 5686 5682 5679 5676 5674 5672 5669 5667 5664 5661 5658 5654 5650 5646
5479 5486 5495 5501 5508 5516 5525 5532 5539 5546 5553 5559 5567 5575 5583 5589 5597 5606 5612 5619 5626 5633 5640 5645 5651 5655 5660 5664 5668 5671 5674 5676 5678 5678 5679 5679 5680 5678 5676 5675 5675 5672 5668 5665 5663 5660 5657 5655 5652 5649 5645 5642 5638 5634
5488 5494 5500 5508 5516 5523 5530 5537 5544 5551 5556 5561 5569 5576 5584 5590 5595 5604 5614 5619 5625 5630 5636 5641 5645 5650 5654 5657 5661 5663 5665 5667 5668 5669 5670 5670 5669 5666 5665 5663 5663 5661 5658 5655 5652 5650 5648 5645 5641 5638 5634 5630 5625 5621
5493 5498 5505 5513 5522 5530 5536 5541 5547 5553 5558 5565 5572 5578 5585 5592 5598 5604 5610 5616 5621 5626 5631 5636 5640 5645 5648 5651 5653 5655 5657 5658 5659 5659 5660 5659 5658 5656 5655 5656 5653 5651 5648 5646 5643 5640 5636 5633 5629 5626 5621 5617 5612 5607
5500 5505 5511 5518 5526 5534 5539 5544 5550 5555 5562 5569 5574 5580 5588 5593 5598 5604 5609 5613 5618 5624 5627 5631 5634 5638 5640 5643 5645 5647 5648 5649 5649 5650 5650 5650 5648 5647 5648 5646 5644 5641 5638 5635 5632 5628 5624 5621 5616 5612 5608 5604 5599 5595
5501 5508 5515 5521 5530 5536 5542 5547 5552 5558 5565 5570 5575 5580 5586 5592 5598 5603 5606 5610 5614 5617 5621 5625 5628 5632 5634 5636 5637 5639 5639 5639 5640 5642 5640 5640 5639 5639 5637 5635 5633 5630 5626 5623 5619 5615 5612 5608 5604 5600 5596 5591 5586 5581
5504 5511 5518 5524 5531 5538 5543 5549 5554 5559 5565 5570 5575 5581 5586 5590 5594 5598 5601 5606 5610 5614 5618 5621 5624 5626 5628 5629 5629 5629 5630 5631 5630 5632 5632 5631 5630 5628 5626 5624 5621 5618 5615 5611 5607 5603 5599 5595 5591 5586 5582 5577 5572 5566
5508 5513 5519 5526 5533 5538 5545 5550 5556 5561 5566 5571 5576 5581 5585 5588 5592 5595 5598 5603 5607 5611 5614 5616 5617 5618 5620 5621 5621 5622 5622 5621 5621 5622 5621 5620 5621 5618 5615 5611 5608 5605 5603 5599 5595 5591 5587 5582 5578 5573 5568 5562 5557 5550
5509 5516 5521 5526 5532 5537 5545 5550 5555 5560 5565 5569 5573 5577 5581 5585 5586 5590 5596 5600 5602 5604 5606 5609 5610 5611 5612 5612 5612 5612 5611 5612 5612 5610 5610 5611 5608 5605 5602 5600 5597 5594 5590 5587 5583 5578 5573 5568 5563 5557 5550 5544 5537 5532
5509 5515 5521 5527 5532 5538 5543 5548 5553 5557 5562 5566 5569 5573 5575 5578 5583 5588 5591 5593 5596 5597 5598 5600 5601 5602 5602 5602 5602 5602 5602 5602 5600 5601 5601 5598 5595 5592 5589 5586 5583 5579 5576 5571 5566 5561 5556 5550 5545 5540 5535 5530 5524 5518
5510 5515 5520 5525 5530 5534 5539 5544 5549 5554 5557 5561 5564 5566 5570 5575 5578 5581 5583 5585 5586 5588 5589 5591 5592 5593 5593 5593 5593 5593 5592 5591 5592 5591 5588 5585 5582 5579 5575 5572 5568 5563 5559 5554 5550 5545 5540 5534 5528 5523 5518 5513 5508 5502
5511 5515 5519 5523 5528 5532 5535 5540 5544 5548 5551 5555 5558 5561 5564 5567 5569 5571 5573 5576 5577 5578 5580 5581 5582 5583 5583 5584 5584 5583 5582 5581 5579 5577 5574 5571 5567 5564 5560 5556 5552 5547 5543 5538 5533 5529 5524 5519 5514 5509 5504 5499 5494 5489
5511 5514 5518 5522 5526 5530 5534 5538 5541 5543 5546 5549 5552 5554 5557 5559 5561 5563 5565 5567 5569 5571 5572 5572 5573 5573 5573 5573 5573 5572 5570 5568 5566 5563 5560 5556 5553 5550 5546 5542 5538 5534 5529 5524 5519 5515 5511 5507 5502 5498 5493 5487 5481 5475
5508 5512 5516 5521 5524 5527 5531 5534 5538 5540 5543 5545 5547 5549 5551 5552 5554 5556 5557 5558 5560 5560 5561 5562 5562 5561 5561 5560 5558 5557 5555 5553 5551 5549 5546 5544 5541 5538 5534 5530 5526 5521 5516 5511 5506 5502 5498 5494 5490 5485 5479 5474 5468 5462
5504 5508 5511 5515 5518 5522 5525 5528 5531 5533 5535 5537 5539 5541 5543 5544 5545 5546 5547 5548 5548 5548 5548 5548 5548 5548 5547 5546 5545 5544 5542 5541 5539 5537 5535 5532 5529 5525 5520 5516 5511 5507 5502 5498 5494 5490 5486 5481 5476 5471 5465 5459 5453 5445
5499 5502 5506 5509 5512 5514 5517 5520 5522 5524 5526 5528 5530 5531 5533 5534 5535 5535 5536 5537 5537 5538 5538 5537 5537 5536 5536 5535 5534 5533 5532 5531 5528 5526 5522 5519 5514 5510 5505 5501 5497 5493 5489 5485 5481 5477 5472 5466 5461 5455 5448 5441 5434 5426
5496 5498 5500 5503 5505 5508 5510 5511 5514 5516 5518 5519 5521 5522 5524 5524 5525 5526 5527 5527 5527 5527 5527 5527 5526 5525 5525 5524 5523 5521 5519 5517 5513 5510 5506 5502 5499 5495 5491 5487 5484 5480 5476 5472 5467 5462 5457 5452 5445 5439 5432 5424 5416 5406
5494 5496 5498 5499 5501 5503 5505 5506 5508 5509 5511 5512 5514 5514 5515 5517 5517 5518 5518 5518 5518 5518 5518 5517 5516 5515 5514 5512 5509 5507 5504 5501 5498 5495 5492 5488 5485 5482 5479 5475 5472 5468 5463 5458 5454 5448 5442 5436 5430 5423 5416 5407 5398 5387
5491 5493 5494 5495 5497 5498 5500 5501 5502 5503 5504 5506 5506 5507 5507 5507 5508 5508 5509 5509 5508 5507 5507 5505 5504 5503 5501 5498 5495 5492 5490 5487 5484 5481 5478 5475 5472 5469 5466 5463 5459 5455 5449 5444 5439 5433 5427 5420 5413 5405 5397 5388 5378 5368
5486 5488 5489 5490 5491 5492 5493 5494 5495 5496 5496 5497 5497 5498 5498 5497 5498 5497 5498 5497 5496 5495 5493 5491 5490 5488 5485 5483 5481 5478 5475 5473 5470 5468 5466 5464 5461 5458 5454 5450 5446 5441 5436 5430 5424 5417 5410 5403 5395 5386 5377 5368 5357 5349
5481 5482 5482 5482 5483 5484 5484 5484 5485 5485 5485 5485 5486 5485 5485 5484 5484 5484 5484 5483 5481 5479 5477 5475 5473 5472 5470 5468 5466 5465 5463 5461 5460 5457 5455 5452 5449 5445 5441 5437 5432 5427 5421 5414 5407 5400 5392 5383 5375 5366 5357 5349 5340 5331
5471 5472 5473 5472 5472 5473 5472 5471 5472 5471 5471 5470 5470 5469 5468 5467 5467 5467 5466 5464 5463 5462 5461 5460 5459 5458 5458 5457 5456 5455 5453 5451 5448 5446 5443 5439 5436 5431 5427 5422 5416 5411 5405 5398 5391 5383 5374 5365 5357 5348 5339 5331 5323 5315
5461 5461 5461 5460 5459 5458 5457 5456 5454 5454 5453 5452 5450 5450 5448 5448 5448 5449 5447 5447 5448 5449 5449 5450 5450 5449 5448 5447 5445 5444 5442 5439 5437 5433 5430 5425 5421 5417 5412 5406 5399 5393 5385 5378 5371 5364 5357 5348 5340 5332 5324 5315 5309 5301
5450 5450 5450 5449 5448 5447 5447 5446 5445 5444 5443 5442 5441 5439 5440 5440 5440 5440 5441 5441 5442 5442 5442 5442 5441 5440 5439 5437 5435 5433 5430 5427 5423 5419 5415 5410 5405 5399 5394 5387 5381 5374 5367 5361 5353 5345 5338 5331 5324 5316 5309 5302 5296 5289
5448 5448 5448 5447 5447 5446 5445 5444 5443 5442 5441 5440 5439 5437 5438 5438 5437 5437 5437 5436 5436 5435 5434 5433 5432 5430 5428 5425 5423 5420 5416 5413 5409 5404 5399 5393 5388 5382 5375 5369 5363 5356 5348 5341 5334 5328 5321 5315 5308 5302 5296 5291 5285 5279
5445 5445 5445 5445 5444 5443 5443 5442 5440 5439 5438 5437 5436 5435 5435 5434 5433 5431 5430 5429 5429 5427 5425 5423 5421 5419 5416 5413 5409 5405 5401 5397 5392 5387 5382 5376 5369 5363 5356 5350 5344 5338 5331 5324 5318 5311 5305 5300 5295 5290 5286 5280 5275 5268
5441 5441 5441 5440 5440 5439 5438 5437 5436 5435 5434 5433 5432 5431 5429 5428 5426 5424 5423 5421 5419 5417 5415 5412 5409 5406 5402 5399 5395 5390 5386 5380 5375 5368 5362 5356 5351 5344 5339 5333 5327 5321 5315 5310 5304 5299 5293 5288 5284 5279 5274 5269 5264 5258
5437 5436 5436 5435 5434 5433 5432 5431 5430 5429 5428 5426 5424 5422 5420 5419 5417 5415 5412 5410 5408 5405 5402 5399 5396 5393 5389 5385 5380 5374 5368 5362 5356 5350 5344 5339 5333 5328 5322 5317 5311 5307 5302 5297 5292 5287 5283 5278 5274 5269 5265 5260 5255 5250
5430 5429 5428 5426 5425 5424 5423 5422 5420 5419 5418 5416 5414 5412 5409 5407 5405 5403 5401 5399 5396 5393 5390 5387 5383 5378 5373 5368 5362 5356 5350 5344 5338 5333 5328 5323 5317 5312 5306 5302 5297 5293 5289 5284 5280 5276 5271 5267 5263 5259 5254 5250 5246 5242